Flag for U.S.A. Weather past 2 weeks in Kalamazoo, Michigan, U.S.A.

Now
50 °F

Light rain. Fog.


Feels Like: 46 °F
Forecast: 46 / 59 °F
Wind: 10 mph from North

Location: Kalamazoo / Battle Creek International Airport

Current Time: Sep 30, 2014 at 10:41:11 AM

Latest Report: Sep 30, 2014 at 9:53 AM


Visibility: 4 mi

Pressure: 30.02 "Hg

Humidity: 86%

Dew point: 46 °F

Location of KalamazooLocation

Historic Weather in Kalamazoo — Graph

°F

Kalamazoo temperature yesterday

Maximum temperature yesterday: 78 °F (at 2:53 PM)
Minimum temperature yesterday: 48 °F (at 5:53 AM)
Average temperature yesterday: 64 °F

Past Weeks' High & Low Weather Summary

 TemperatureHumidityPressure
High81 °F (Sep 20, 2:53 PM)97% (Sep 16, 6:53 AM)30.42 "Hg (Sep 16, 6:53 AM)
Low39 °F (Sep 17, 4:53 AM)35% (Sep 25, 3:53 PM)29.65 "Hg (Sep 21, 2:53 AM)
Average58 °F74%30.13 "Hg
* Reported Sep 15 9:53 AM — Sep 30 9:53 AM, Kalamazoo, Weather by CustomWeather, © 2014

Note: Actual official high and low records may vary slightly from our data, if they occured in-between our weather recording intervals... More about our weather records

Advertising

Kalamazoo weather history for previous 24 hours

 ConditionsComfort  
Time TempWeatherWind HumidityBarometerVisibility
9:53 AM
Sep 30
50 °FLight rain. Fog.10 mph86%30.02 "Hg4 mi
8:53 AM49 °FOvercast.9 mph90%30.01 "Hg10 mi
7:53 AM48 °FOvercast.9 mph89%30.01 "Hg10 mi
6:53 AM48 °FFog.14 mph89%30.00 "Hg5 mi
5:53 AM49 °FLow clouds.14 mph86%29.99 "Hg10 mi
4:53 AM50 °FFog.12 mph89%29.98 "Hg3 mi
3:53 AM50 °FLow clouds.10 mph89%29.98 "Hg10 mi
2:53 AM52 °FLight rain. Low clouds.13 mph93%29.98 "Hg10 mi
1:53 AM53 °FLow clouds.13 mph93%29.96 "Hg10 mi
12:53 AM56 °FLight rain. Mostly cloudy.12 mph93%29.95 "Hg8 mi
11:53 PM
Sep 29
60 °FLight rain. Fog.10 mph90%29.95 "Hg4 mi
10:53 PM61 °FFog.9 mph87%29.94 "Hg6 mi
9:53 PM62 °FFog.12 mph86%29.94 "Hg6 mi
8:53 PM68 °FClear.8 mph68%29.93 "Hg10 mi
7:53 PM68 °FSunny.5 mph65%29.92 "Hg10 mi
6:53 PM74 °FSunny.7 mph53%29.92 "Hg10 mi
5:53 PM77 °FSunny.12 mph48%29.93 "Hg10 mi
4:53 PM78 °FSunny.10 mph48%29.94 "Hg10 mi
3:53 PM78 °FSunny.8 mph48%29.95 "Hg10 mi
2:53 PM78 °FSunny.9 mph50%29.97 "Hg10 mi
1:53 PM77 °FSunny.No wind48%29.99 "Hg10 mi
12:53 PM75 °FSunny.6 mph45%30.01 "Hg10 mi
11:53 AM73 °FSunny.3 mph50%30.03 "Hg10 mi
10:53 AM71 °FSunny.No wind57%30.04 "Hg10 mi
Weather by CustomWeather, © 2014

See weather overviewHow to use our weather pages